Flag for Finland Weather past 2 weeks in Vantaa, Finland

Now
27 °F

Light snow. Ice fog.


Feels Like: 14 °F
Forecast: 20 / 29 °F
Wind: 17 mph from Northeast

Location: Helsinki-Vantaa

Current Time: Dec 22, 2014 at 10:52:17 PM

Latest Report: Dec 22, 2014 at 10:20 PM


Visibility: 2 mi

Pressure: 29.06 "Hg

Humidity: 86%

Dew point: 23 °F

Location of VantaaLocation

Historic Weather in Vantaa — Graph

°F

Vantaa temperature yesterday

Maximum temperature yesterday: 34 °F (at 12:50 AM)
Minimum temperature yesterday: 27 °F (at 11:20 PM)
Average temperature yesterday: 31 °F

Past Weeks' High & Low Weather Summary

 TemperatureHumidityPressure
High41 °F (Dec 19, 2:50 PM)100% (Dec 8, 3:20 PM)30.04 "Hg (Dec 8, 3:20 PM)
Low19 °F (Dec 22, 11:20 AM)70% (Dec 10, 7:50 PM)28.74 "Hg (Dec 13, 8:50 AM)
Average35 °F89%29.46 "Hg
* Reported Dec 7 9:20 PM — Dec 22 9:50 PM, Vantaa, Weather by CustomWeather, © 2014

Note: Actual official high and low records may vary slightly from our data, if they occured in-between our weather recording intervals... More about our weather records

Advertising

Vantaa weather history for previous 24 hours

 ConditionsComfort  
Time TempWeatherWind HumidityBarometerVisibility
9:50 PM
Dec 22
27 °FLight snow. Ice fog.17 mph93%29.06 "Hg1 mi
9:20 PM27 °FSnow. Ice fog.16 mph93%29.06 "Hg1 mi
8:50 PM27 °FSnow. Ice fog.15 mph93%29.06 "Hg1 mi
8:20 PM28 °FSnow. Ice fog.15 mph93%29.06 "Hg1 mi
7:50 PM28 °FLight snow. Passing clouds.14 mph93%29.09 "Hg1 mi
7:20 PM28 °FLight snow. Passing clouds.13 mph93%29.09 "Hg2 mi
6:50 PM28 °FLight snow. Passing clouds.13 mph93%29.09 "Hg2 mi
6:20 PM28 °FLight snow. Passing clouds.13 mph93%29.12 "Hg2 mi
5:50 PM28 °FLight snow. Passing clouds.12 mph93%29.12 "Hg2 mi
5:20 PM28 °FLight snow. Ice fog.12 mph93%29.15 "Hg2 mi
4:50 PM28 °FLight snow. Ice fog.12 mph93%29.15 "Hg1 mi
4:20 PM27 °FSnow. Ice fog.10 mph93%29.18 "Hg1 mi
3:50 PM27 °FLight snow. Ice fog.10 mph93%29.18 "Hg2 mi
3:20 PM27 °FSnow. Ice fog.9 mph93%29.21 "Hg1 mi
2:50 PM27 °FLight snow. Broken clouds.10 mph86%29.21 "Hg5 mi
2:20 PM27 °FBroken clouds.10 mph86%29.24 "HgN/A
1:50 PM27 °FPartly sunny.9 mph86%29.24 "HgN/A
1:20 PM25 °FBroken clouds.10 mph86%29.27 "HgN/A
12:50 PM27 °FPartly sunny.10 mph80%29.27 "HgN/A
12:20 PM25 °FPartly sunny.8 mph86%29.30 "HgN/A
11:50 AM21 °FPartly sunny.7 mph93%29.30 "HgN/A
11:20 AM19 °FPartly sunny.6 mph100%29.30 "HgN/A
10:50 AM21 °FScattered clouds.6 mph86%29.33 "HgN/A
10:20 AM21 °FScattered clouds.6 mph93%29.33 "HgN/A
9:50 AM23 °FPartly sunny.2 mph93%29.33 "HgN/A
9:20 AM21 °FFog.2 mph93%29.33 "HgN/A
8:50 AM27 °FPassing clouds.2 mph86%29.33 "HgN/A
8:20 AM25 °FPassing clouds.5 mph86%29.33 "HgN/A
7:20 AM25 °FPassing clouds.5 mph100%29.36 "HgN/A
6:50 AM27 °FPartly cloudy.3 mph93%29.36 "HgN/A
6:20 AM25 °FPassing clouds.1 mph100%29.36 "HgN/A
5:50 AM25 °FPassing clouds.1 mph93%29.39 "HgN/A
5:20 AM25 °FPartly cloudy.1 mph93%29.39 "HgN/A
4:50 AM23 °FPartly cloudy.3 mph100%29.39 "HgN/A
4:20 AM23 °FPassing clouds.1 mph93%29.39 "HgN/A
3:50 AM23 °FFog.3 mph93%29.39 "HgN/A
3:20 AM23 °FFog.1 mph93%29.42 "HgN/A
2:20 AM23 °FPassing clouds.6 mph93%29.42 "HgN/A
1:50 AM27 °FPartly cloudy.6 mph93%29.42 "HgN/A
1:20 AM25 °FPassing clouds.7 mph93%29.42 "HgN/A
12:50 AM27 °FPassing clouds.6 mph93%29.42 "HgN/A
12:20 AM25 °FPassing clouds.7 mph93%29.42 "HgN/A
11:20 PM
Dec 21
27 °FPassing clouds.8 mph93%29.42 "HgN/A
10:50 PM28 °FPassing clouds.8 mph86%29.42 "HgN/A
10:20 PM30 °FPassing clouds.8 mph80%29.42 "HgN/A
Weather by CustomWeather, © 2014

See weather overviewHow to use our weather pages